Home > Weather > Adak > Past weeks

Flag for USA Weather for the Past 2 Weeks in Adak, Alaska, USA

Now
39 °F

Overcast.


Feels Like: 32 °F
Forecast: 39 / 44 °F
Wind: 12 mph from South

Location: Adak

Current Time: May 1, 2016 at 3:09:31 AM

Latest Report: May 1, 2016 at 2:36 AM


Visibility: 10 mi

Pressure: 29.94 "Hg

Humidity: 65%

Dew Point: 28 °F

Location of AdakLocation

Historic Weather in Adak — Graph

°F

Adak Temperature Yesterday

Maximum temperature yesterday: 43 °F (at 3:16 PM)
Minimum temperature yesterday: 34 °F (at 3:36 AM)
Average temperature yesterday: 39 °F

High & Low Weather Summary for the Past Weeks

 TemperatureHumidityPressure
High46 °F (Apr 25, 1:36 PM)81% (Apr 16, 9:36 PM)30.09 "Hg (Apr 16, 9:36 PM)
Low27 °F (Apr 22, 3:36 AM)49% (Apr 22, 2:16 PM)28.83 "Hg (Apr 26, 6:56 PM)
Average39 °F70%29.38 "Hg
* Reported Apr 16 1:36 AM — May 1 1:56 AM, Adak, Weather by CustomWeather, © 2016

Note: Actual official high and low records may vary slightly from our data, if they occured in-between our weather recording intervals... More about our weather records

Advertising

Adak Weather History for the Previous 24 Hours

Scroll right to see more
 ConditionsComfort  
Time TempWeatherWind HumidityBarometerVisibility
1:56 AM
Sun, May 1
39 °FOvercast.10 mph65%29.95 "Hg10 mi
1:36 AM39 °FOvercast.6 mph65%29.95 "Hg10 mi
1:16 AM39 °FOvercast.9 mph65%29.96 "Hg10 mi
12:56 AM39 °FOvercast.5 mph65%29.96 "Hg10 mi
12:36 AM37 °FMostly cloudy.6 mph65%29.97 "Hg10 mi
12:16 AM37 °FMostly cloudy.6 mph65%29.97 "Hg10 mi
11:56 PM
Sat, Apr 30
37 °FOvercast.8 mph65%29.98 "Hg10 mi
11:36 PM37 °FPassing clouds.7 mph65%29.98 "Hg10 mi
11:16 PM37 °FPassing clouds.9 mph65%29.98 "Hg10 mi
10:56 PM39 °FOvercast.8 mph61%29.98 "Hg10 mi
9:56 PM39 °FOvercast.9 mph61%29.99 "Hg10 mi
9:36 PM39 °FOvercast.8 mph61%29.99 "Hg10 mi
9:16 PM39 °FOvercast.9 mph65%29.99 "Hg10 mi
8:56 PM39 °FOvercast.8 mph65%29.99 "Hg10 mi
8:16 PM39 °FOvercast.10 mph65%30.00 "Hg10 mi
7:36 PM43 °FOvercast.12 mph57%30.01 "Hg10 mi
6:56 PM43 °FPartly sunny.12 mph57%30.01 "Hg10 mi
6:36 PM43 °FOvercast.8 mph57%30.01 "Hg10 mi
5:36 PM43 °FOvercast.7 mph57%30.02 "Hg10 mi
5:16 PM43 °FOvercast.10 mph57%30.02 "Hg10 mi
4:56 PM43 °FOvercast.9 mph57%30.03 "Hg10 mi
4:36 PM43 °FOvercast.10 mph61%30.03 "Hg10 mi
4:16 PM43 °FOvercast.8 mph61%30.03 "Hg10 mi
3:56 PM43 °FOvercast.9 mph61%30.03 "Hg10 mi
3:36 PM39 °FOvercast.8 mph65%30.03 "Hg10 mi
3:16 PM43 °FOvercast.8 mph57%30.04 "Hg10 mi
2:56 PM41 °FOvercast.13 mph61%30.04 "Hg10 mi
2:36 PM39 °FOvercast.8 mph70%30.04 "Hg10 mi
2:16 PM39 °FOvercast.8 mph70%30.05 "Hg10 mi
1:56 PM39 °FOvercast.10 mph70%30.06 "Hg10 mi
1:36 PM39 °FOvercast.9 mph70%30.06 "Hg10 mi
1:16 PM39 °FOvercast.9 mph70%30.06 "Hg10 mi
12:56 PM39 °FOvercast.9 mph65%30.06 "Hg10 mi
12:36 PM39 °FOvercast.15 mph70%30.05 "Hg10 mi
11:56 AM39 °FOvercast.8 mph65%30.05 "Hg10 mi
11:36 AM39 °FOvercast.8 mph70%30.05 "Hg10 mi
11:16 AM39 °FOvercast.No wind61%30.05 "Hg10 mi
10:56 AM39 °FOvercast.3 mph65%30.05 "Hg10 mi
10:36 AM37 °FOvercast.6 mph75%30.05 "Hg10 mi
10:16 AM39 °FOvercast.5 mph65%30.05 "Hg10 mi
9:56 AM37 °FOvercast.6 mph70%30.05 "Hg10 mi
9:36 AM37 °FOvercast.8 mph70%30.05 "Hg10 mi
9:16 AM37 °FOvercast.9 mph70%30.05 "Hg10 mi
8:56 AM37 °FOvercast.9 mph70%30.05 "Hg10 mi
8:36 AM37 °FPartly sunny.3 mph70%30.05 "Hg10 mi
8:16 AM37 °FOvercast.8 mph70%30.05 "Hg10 mi
7:56 AM37 °FOvercast.6 mph70%30.06 "Hg10 mi
7:36 AM37 °FOvercast.6 mph70%30.06 "Hg10 mi
7:16 AM37 °FOvercast.12 mph70%30.05 "Hg10 mi
6:56 AM36 °FPassing clouds.5 mph70%30.05 "Hg10 mi
6:36 AM37 °FOvercast.9 mph70%30.05 "Hg10 mi
6:16 AM37 °FOvercast.7 mph70%30.06 "Hg10 mi
5:56 AM36 °FOvercast.6 mph75%30.05 "Hg10 mi
5:36 AM37 °FOvercast.6 mph70%30.05 "Hg10 mi
5:16 AM37 °FOvercast.3 mph70%30.05 "Hg10 mi
4:56 AM37 °FOvercast.9 mph70%30.04 "Hg10 mi
4:36 AM37 °FOvercast.No wind70%30.05 "Hg10 mi
4:16 AM37 °FOvercast.3 mph70%30.05 "Hg10 mi
3:56 AM36 °FOvercast.9 mph75%30.05 "Hg10 mi
3:36 AM34 °FOvercast.8 mph75%30.05 "Hg10 mi
3:16 AM36 °FOvercast.9 mph70%30.05 "Hg10 mi
Weather by CustomWeather, © 2016

See weather overviewHow to use our weather pages